OPS 4029

operational
NORAD ID: 12930 Int'l Des: 1981-107 Owner: NRO/SAFSP Country: US
MEOELLIPTICAL

Über OPS 4029

Beschreibung wird geladen...

Live-Position

3D-Globus wird geladen...

Nächste Überflüge

Höhenverlauf

Altitude vs Time

uPlot chart will show altitude changes over time

Zweizeiliger Elementsatz

1 12930U 81107A 26062.52354020 .00000036 00000-0 00000-0 0 9998
2 12930 5.5867 0.7647 1038677 42.8757 350.1931 1.00375439 6816
Epoch: 3. März 2026 • Age: 30 hours

Aktueller Status

Höhe 37291.0 km
Geschwindigkeit 2.97 km/s
Subsatellitenpunkt -5.35°S, 33.41°E
Startdatum 31. Okt. 1981
Alter 44.3 years
Typ other

Technische Details

Klassifizierung Payload
Masse 1000.00 kg
Trockenmasse 900.00 kg
Gesamtmasse 1000.00 kg
Länge 6.00 m
Durchmesser 2.50 m
Spannweite 30.00 m
Form Box + 2 Pan + Dish
Hersteller TRW
Bus-Typ Vortex
Phasenstatus Unknown Transfer Status
Besitzer/Staat NRO/SAFSP/US

Große Konstellationen

Loading constellations...